Powrót do katalogu

STARLINK-3649

AktywnyŁącznośćVLEO
NORAD 51980·PAYLOAD·🇺🇸 United States

Wystrzelony Mar 9, 2022 z Cape Canaveral Space Force Station

Loading…

Następne Przeloty (najbliższe 24 godziny)

TLE

ŚwieżeSource: CelesTrak SupGP

Epoka: Sep 15, 2026, 01:40 UTC

1 51980C 22025AA  26258.06993056 -.00007820  00000+0 -22372-3 0  2580
2 51980  53.1587 260.8098 0001383  74.6467 310.4942 15.35405546    18

Śledź STARLINK-3649 w czasie rzeczywistym z AllMySat

Download on the App Store